Hourly Weather Barsuki

Today, 21 April, Wednesday

Time Temperature Precipitation Wind Pressure Humidity
00:00 +6°C° 0 mm 1 mps 751 mmHg 87%
01:00 +6°C° 0 mm 1 mps 751 mmHg 88%
02:00 +6°C° 0 mm 1 mps 750 mmHg 89%
03:00 +6°C° 0 mm 1 mps 750 mmHg 89%
04:00 +5°C° 0 mm 1 mps 749 mmHg 89%
05:00 +5°C° 0 mm 1 mps 749 mmHg 89%
06:00 +6°C° 0 mm 1 mps 748 mmHg 85%
07:00 +6°C° 0 mm 1 mps 748 mmHg 81%
08:00 +7°C° 0 mm 1 mps 748 mmHg 77%
09:00 +8°C° 0.1 mm 1 mps 748 mmHg 74%
10:00 +7°C° 0.1 mm 2 mps 747 mmHg 71%
11:00 +8°C° 0.1 mm 2 mps 747 mmHg 68%
12:00 +8°C° 0.1 mm 2 mps 747 mmHg 65%
13:00 +9°C° 0.1 mm 2 mps 747 mmHg 63%
14:00 +9°C° 0.1 mm 2 mps 746 mmHg 60%
15:00 +9°C° 0.1 mm 2 mps 746 mmHg 61%
16:00 +10°C° 0.1 mm 2 mps 746 mmHg 61%
17:00 +10°C° 0.1 mm 2 mps 746 mmHg 61%
18:00 +8°C° 0 mm 2 mps 746 mmHg 67%
19:00 +7°C° 0 mm 2 mps 746 mmHg 73%
20:00 +6°C° 0 mm 2 mps 746 mmHg 79%
21:00 +6°C° 0 mm 2 mps 746 mmHg 80%
22:00 +6°C° 0 mm 2 mps 746 mmHg 81%
23:00 +5°C° 0 mm 3 mps 746 mmHg 82%

Tomorrow, 22 April, Thursday

Time Temperature Precipitation Wind Pressure Humidity
00:00 +5°C° 0.1 mm 3 mps 746 mmHg 84%
01:00 +5°C° 0.1 mm 3 mps 746 mmHg 86%
02:00 +5°C° 0.1 mm 3 mps 746 mmHg 88%
03:00 +4°C° 0 mm 3 mps 747 mmHg 89%
04:00 +4°C° 0 mm 3 mps 747 mmHg 91%
05:00 +3°C° 0 mm 3 mps 747 mmHg 93%
06:00 +5°C° 0 mm 3 mps 747 mmHg 84%
07:00 +8°C° 0 mm 3 mps 747 mmHg 76%
08:00 +9°C° 0 mm 3 mps 748 mmHg 68%
09:00 +11°C° 0 mm 3 mps 748 mmHg 60%
10:00 +12°C° 0 mm 3 mps 748 mmHg 52%
11:00 +14°C° 0 mm 3 mps 748 mmHg 44%
12:00 +14°C° 0 mm 3 mps 748 mmHg 41%
13:00 +15°C° 0 mm 4 mps 747 mmHg 38%
14:00 +17°C° 0 mm 4 mps 747 mmHg 35%
15:00 +15°C° 0.1 mm 4 mps 747 mmHg 43%
16:00 +14°C° 0.1 mm 4 mps 747 mmHg 51%
17:00 +13°C° 0.1 mm 4 mps 747 mmHg 59%
18:00 +11°C° 0.3 mm 4 mps 747 mmHg 68%
19:00 +9°C° 0.3 mm 3 mps 748 mmHg 78%
20:00 +8°C° 0.3 mm 3 mps 748 mmHg 88%
21:00 +7°C° 0 mm 2 mps 748 mmHg 88%
22:00 +6°C° 0 mm 2 mps 748 mmHg 89%
23:00 +6°C° 0 mm 1 mps 748 mmHg 89%

Day after tomorrow, 23 April, Friday

Time Temperature Precipitation Wind Pressure Humidity
00:00 +6°C° 0 mm 2 mps 748 mmHg 89%
01:00 +6°C° 0 mm 2 mps 748 mmHg 88%
02:00 +6°C° 0 mm 2 mps 748 mmHg 87%
03:00 +5°C° 0 mm 2 mps 748 mmHg 85%
04:00 +5°C° 0 mm 2 mps 748 mmHg 84%
05:00 +4°C° 0 mm 3 mps 748 mmHg 83%
06:00 +4°C° 0 mm 3 mps 749 mmHg 77%
07:00 +4°C° 0 mm 4 mps 749 mmHg 72%
08:00 +5°C° 0 mm 5 mps 749 mmHg 66%
09:00 +6°C° 0 mm 5 mps 749 mmHg 59%
10:00 +7°C° 0 mm 5 mps 750 mmHg 52%
11:00 +8°C° 0 mm 5 mps 750 mmHg 45%
12:00 +8°C° 0 mm 5 mps 750 mmHg 45%
13:00 +8°C° 0 mm 5 mps 750 mmHg 44%
14:00 +8°C° 0 mm 5 mps 750 mmHg 44%
15:00 +8°C° 0 mm 4 mps 750 mmHg 46%
16:00 +8°C° 0 mm 4 mps 750 mmHg 48%
17:00 +9°C° 0 mm 3 mps 750 mmHg 50%
18:00 +7°C° 0 mm 3 mps 750 mmHg 57%
19:00 +6°C° 0 mm 2 mps 750 mmHg 64%
20:00 +5°C° 0 mm 1 mps 750 mmHg 71%
21:00 +5°C° 0 mm 1 mps 750 mmHg 73%
22:00 +4°C° 0 mm 1 mps 750 mmHg 74%
23:00 +4°C° 0 mm 1 mps 750 mmHg 76%

24 April, Saturday

Time Temperature Precipitation Wind Pressure Humidity
00:00 +3°C° 0 mm 1 mps 749 mmHg 78%
01:00 +3°C° 0 mm 1 mps 749 mmHg 79%
02:00 +2°C° 0 mm 1 mps 749 mmHg 81%
03:00 +2°C° 0 mm 1 mps 748 mmHg 84%
04:00 +2°C° 0 mm 1 mps 748 mmHg 86%
05:00 +1°C° 0 mm 1 mps 748 mmHg 89%
06:00 +2°C° 0 mm 2 mps 748 mmHg 82%
07:00 +3°C° 0 mm 2 mps 748 mmHg 76%
08:00 +4°C° 0 mm 2 mps 748 mmHg 70%
09:00 +5°C° 0 mm 2 mps 748 mmHg 65%
10:00 +4°C° 0 mm 3 mps 748 mmHg 61%
11:00 +5°C° 0 mm 3 mps 748 mmHg 56%
12:00 +5°C° 0 mm 3 mps 748 mmHg 55%
13:00 +5°C° 0 mm 3 mps 748 mmHg 54%
14:00 +7°C° 0 mm 3 mps 748 mmHg 53%
15:00 +5°C° 0.2 mm 3 mps 748 mmHg 57%
16:00 +5°C° 0.2 mm 3 mps 748 mmHg 62%
17:00 +5°C° 0.2 mm 3 mps 747 mmHg 66%
18:00 +4°C° 0.1 mm 3 mps 748 mmHg 72%
19:00 +2°C° 0.1 mm 3 mps 748 mmHg 78%
20:00 +2°C° 0.1 mm 2 mps 748 mmHg 83%
21:00 +2°C° 0 mm 2 mps 748 mmHg 86%
22:00 +1°C° 0 mm 3 mps 748 mmHg 89%
23:00 +1°C° 0 mm 3 mps 748 mmHg 92%

25 April, Sunday

Time Temperature Precipitation Wind Pressure Humidity
00:00 0°C° 0 mm 3 mps 747 mmHg 92%
01:00 0°C° 0 mm 3 mps 747 mmHg 92%
02:00 0°C° 0 mm 3 mps 747 mmHg 92%
03:00 +1°C° 0 mm 2 mps 747 mmHg 93%
04:00 -1°C° 0 mm 2 mps 747 mmHg 93%
05:00 -1°C° 0 mm 2 mps 747 mmHg 94%
06:00 +1°C° 0 mm 2 mps 747 mmHg 88%
07:00 +2°C° 0 mm 2 mps 747 mmHg 82%
08:00 +2°C° 0 mm 3 mps 747 mmHg 76%
09:00 +3°C° 0 mm 3 mps 747 mmHg 69%
10:00 +3°C° 0 mm 3 mps 747 mmHg 62%
11:00 +4°C° 0 mm 3 mps 747 mmHg 56%
12:00 +4°C° 0 mm 3 mps 748 mmHg 55%
13:00 +5°C° 0 mm 3 mps 748 mmHg 54%
14:00 +5°C° 0 mm 3 mps 748 mmHg 53%
15:00 +5°C° 0 mm 3 mps 748 mmHg 52%
16:00 +5°C° 0 mm 3 mps 748 mmHg 51%
17:00 +6°C° 0 mm 2 mps 748 mmHg 50%
18:00 +4°C° 0 mm 2 mps 748 mmHg 57%
19:00 +3°C° 0 mm 2 mps 748 mmHg 65%
20:00 +2°C° 0 mm 1 mps 748 mmHg 72%
21:00 +2°C° 0 mm 1 mps 748 mmHg 75%
22:00 +1°C° 0 mm 1 mps 748 mmHg 77%
23:00 +1°C° 0 mm 1 mps 748 mmHg 80%

26 April, Monday

Time Temperature Precipitation Wind Pressure Humidity
00:00 +1°C° 0 mm 1 mps 748 mmHg 82%
01:00 +1°C° 0 mm 1 mps 748 mmHg 84%
02:00 +1°C° 0 mm 1 mps 748 mmHg 86%
03:00 +1°C° 0 mm 1 mps 748 mmHg 88%
04:00 -1°C° 0 mm 2 mps 748 mmHg 90%
05:00 +1°C° 0 mm 2 mps 748 mmHg 91%
06:00 +2°C° 0 mm 2 mps 748 mmHg 87%
07:00 +2°C° 0 mm 3 mps 748 mmHg 82%
08:00 +3°C° 0 mm 3 mps 748 mmHg 77%
09:00 +3°C° 0.1 mm 3 mps 748 mmHg 79%
10:00 +3°C° 0.1 mm 4 mps 748 mmHg 80%
11:00 +4°C° 0.1 mm 4 mps 748 mmHg 81%
12:00 +3°C° 0.4 mm 4 mps 748 mmHg 86%
13:00 +1°C° 0.4 mm 4 mps 748 mmHg 91%
14:00 +2°C° 0.4 mm 3 mps 748 mmHg 96%
15:00 +2°C° 0.3 mm 3 mps 748 mmHg 96%
16:00 +1°C° 0.3 mm 3 mps 748 mmHg 97%
17:00 +1°C° 0.3 mm 3 mps 748 mmHg 97%
18:00 +1°C° 0.3 mm 3 mps 748 mmHg 97%
19:00 +1°C° 0.3 mm 3 mps 748 mmHg 97%
20:00 +1°C° 0.3 mm 3 mps 748 mmHg 97%
21:00 +1°C° 0.3 mm 3 mps 748 mmHg 97%
22:00 +1°C° 0.3 mm 3 mps 748 mmHg 97%
23:00 +1°C° 0.3 mm 3 mps 749 mmHg 97%
Show more